Showing default

LYRA-1, 62664

Orbit data source: Space-Track

LYRA-1, 62664 is a payload satellite owned by Echostar AU (AU) in SSO that was launched on Tue, 14 Jan 2025 UTC via an FALCON 9 launch vehicle from the Air Force Western Test Range (AFWTR). Payload-class satellites include a variety of spacecraft equipped with specific instruments for various scientific and technological missions. These include communications satellites like Starlink; space stations such as the ISS; scientific satellites like the Hubble; Earth observation satellites from companies like Planet Labs, Umbra, and HawkEye 360; GPS; miniature CubeSats for education and research; and military/defense satellites.

Loading next visibility...
Identifier
62664, 2025-009BH
Orbit
SSO
Country
Flag of AUAU / AUS
Related business
Manufacturer
Astro Digital
Mission
Operational Commercial Communications
Bus & Motor
CORVUS XL, Unknown motor
Mass
74 kg wet, 74 kg dry
Launch date (UTC)
2025-01-14 (1 year ago)
Launch vehicle
FALCON 9
Launch site
Air Force Western Test Range (AFWTR)
Object type
Payload
Rocket body
Debris
Shape & HBR
Box, 1.0 m
Radar Cross Section
0.425 m², Medium (>0.1 m² and < 1m²)

Expand to show TLE details & history
Last TLE update: 10 hours ago

TLE from 10 hours ago
0 LYRA-1
1 62664U 25009BH  26122.13689139  .00009969  00000-0  49225-3 0  9991
2 62664  97.3993 197.7123 0008599   4.0877 356.0426 15.18043251 71434
Epoch: 2026-05-02T03:17Z
TLE epoch observation values (Epoch: 2026-05-02T03:17:07.416Z)
Latitude
0.00002°
Longitude
-71.62772°
Altitude
508.931 km
Speed
7.613 km/s
True Right ascension
13h 10m 50s
True Declination
0° 00' 00"
Sunlit
Object was in full shadow at epoch
Visualization orbit readout
Latitude
Unknown
Longitude
Unknown
Altitude
Unknown
Speed
Unknown
Apparent Right ascension
Unknown
Apparent Declination
Unknown
Sunlit
N/A
Visualization observer readout
Local Sidereal Time
20:48:03
Azimuth
Unknown
Elevation
Unknown
Doppler factor
Unknown
Orbital elements
Apogee altitude
514.645 km
Perigee altitude
502.801 km
Semi-major axis
6,886.86 km
Eccentricity
0.00086
Inclination
97.3993°
RAAN
197.7123°
Arg. of periapsis
4.0877°
True anomaly
356.03579°
Mean anomaly
356.0426°
Eccentric anomaly
356.0392°
Mean motion
3.79762 °/min
Orbital period
94.8 mins
BSTAR
0.00049225
Loading maneuver chart data...
Computing Atmospheric mass density...
Loading historical data...
Loading historical data...
Loading historical data...
Loading historical data...
Loading historical data...
Loading historical data...
Loading historical data...

Documentation

Showing up to 5 results
|